Temp
49 53 54 53 53 56 52 52 43 54 57 57 64 67 71 75 76 75 74 68 70 70 73 70 73 71 80 89 88 87 83 81 81 81 82 81 80 79 80 79 82 80 78 77
44 52 52 50 54 55 56 58 57 58 58 63 67 69 69 70 73 73 73 74 74 75 79 71 75 78 76 83 88 89 84 82 82 81 81 81 80 79 79 80 80 81 81 79
34 46 47 41 50 53 55 59 57 51 57 64 61 65 65 66 69 71 73 73 72 70 77 72 72 79 77 76 90 88 86 83 83 82 80 80 80 80 78 79 81 78 80 80
32 37 26 45 56 58 55 58 60 60 62 61 60 64 66 66 67 70 68 72 70 68 72 74 71 68 69 69 73 86 85 84 83 81 81 80 80 80 80 80 80 81 80 80
27 30 40 47 52 52 48 47 58 56 59 61 60 61 61 69 65 66 65 68 68 71 73 73 69 67 67 68 68 68 84 84 83 82 81 80 79 80 81 81 80 81 81 80
34 27 26 43 56 62 56 40 58 55 53 53 54 45 52 61 63 65 64 64 67 72 73 77 72 68 67 66 66 72 76 84 84 84 82 81 81 81 82 82 82 81 81 81
34 32 36 45 49 57 38 37 49 52 51 50 46 48 54 58 61 64 65 66 71 71 71 74 78 73 70 70 69 80 85 87 83 84 83 82 82 82 82 81 82 81 81 82
33 32 28 47 46 37 42 45 46 47 49 50 51 52 54 55 58 61 62 66 70 67 68 71 72 71 71 72 77 80 81 82 84 83 85 83 82 81 82 81 80 80 80 80
33 34 45 47 43 46 45 43 43 45 48 50 48 50 52 52 56 57 64 64 64 64 64 67 68 68 69 70 75 78 79 80 81 83 84 85 81 81 80 81 80 79 79 79
34 42 42 42 44 46 45 44 45 45 47 48 46 49 49 51 53 60 60 59 61 60 64 65 64 65 68 71 72 73 77 78 82 81 82 86 83 83 82 81 80 80 80 80
36 40 41 43 42 43 44 44 45 47 47 47 47 48 50 52 56 57 59 59 60 59 60 60 62 63 66 66 68 69 74 79 82 85 80 84 84 82 83 84 81 82 82 82
33 41 39 39 43 44 41 42 45 44 47 50 51 50 51 52 56 57 57 58 57 58 59 59 59 60 62 63 65 67 70 78 82 85 81 83 82 67 50 53 52 57 63 77
40 45 44 45 45 45 43 43 45 45 46 48 49 49 48 54 56 57 57 57 56 56 56 57 57 57 59 60 63 64 68 76 83 81 83 81 81 77 69 58 48 46 46 55
47 46 43 45 43 45 45 45 45 45 46 47 47 48 49 51 53 53 52 54 55 55 55 55 55 55 57 57 60 62 67 63 76 82 82 81 80 78 75 67 68 66 51 51
48 48 45 47 47 46 46 45 43 43 43 44 46 46 47 48 48 49 50 51 52 54 52 53 53 53 55 55 58 60 66 68 72 73 75 77 79 76 72 70 70 68 62 55
51 50 50 47 46 46 46 44 42 42 42 42 43 44 46 47 47 48 47 48 46 47 48 49 50 52 54 55 57 59 64 64 65 72 73 72 75 75 72 72 71 67 67 65
47 46 48 47 48 47 45 45 44 43 43 42 43 45 46 46 46 45 47 46 47 47 48 48 48 52 54 56 56 57 63 66 64 69 69 70 69 69 71 72 69 67 65 62
52 50 52 51 49 49 49 47 46 45 44 44 45 45 44 44 43 43 45 46 46 47 48 49 51 53 54 55 56 57 64 64 63 63 63 64 66 66 66 65 64 63 63 61
53 52 54 54 52 51 50 49 48 47 45 45 44 43 44 44 44 44 45 45 45 44 47 50 53 53 54 56 58 57 64 62 61 60 60 59 61 63 63 64 63 62 63 62
52 54 53 52 54 52 51 52 50 49 48 46 46 45 43 43 44 44 45 43 44 45 47 49 50 51 53 57 59 61 64 61 59 57 56 56 56 56 56 55 59 57 57 57
55 55 54 52 52 53 54 54 52 50 50 49 46 44 42 43 44 44 42 41 44 46 46 48 48 50 52 52 55 55 56 54 57 55 54 52 51 52 52 53 53 54 54 54
53 52 55 55 55 53 53 54 53 52 50 48 47 46 44 43 43 44 43 42 44 47 45 45 46 49 49 51 50 50 50 48 48 48 48 48 46 45 44 45 46 46 46 46
55 56 55 54 53 53 55 53 54 52 49 48 46 45 44 44 44 41 40 44 44 45 44 45 47 48 48 45 46 46 45 44 44 43 44 44 44 44 43 42 43 43 43 44
55 55 55 57 55 55 51 53 54 52 50 51 49 48 45 45 46 48 48 49 48 46 45 45 46 48 47 44 44 44 46 45 45 44 42 42 41 42 42 43 42 43 43 43
56 54 57 55 54 53 52 53 52 52 50 50 48 48 48 47 45 46 47 48 49 49 49 51 49 47 46 47 46 45 43 44 45 45 45 44 43 42 41 42 42 43 44 45
50 48 47 54 55 54 56 54 49 50 50 49 50 50 50 48 49 49 48 49 48 49 48 50 51 50 49 47 47 47 46 45 44 43 43 43 44 43 43 43 43 43 43 44
50 47 48 50 54 56 56 54 53 51 53 51 50 52 53 51 51 52 51 50 50 50 51 50 50 49 48 48 47 47 47 46 45 46 45 44 43 43 43 43 43 44 45 45
MSLP
1013.41 1012.87 1012.14 1011.17 1010.29 1009.08 1008.65 1008.28 1008.04 1007.04 1005.66 1005.56 1004.79 1004.57 1004.29 1004.40 1005.57 1006.46 1007.06 1008.51 1008.28 1007.97 1007.62 1006.74 1005.72 1005.21 1005.70 1005.61 1006.28 1007.16 1008.30 1009.13 1009.75 1010.53 1011.33 1012.01 1012.50 1013.00 1013.57 1013.89 1014.08 1014.50 1014.96 1015.47
1014.42 1013.89 1012.90 1011.98 1011.12 1010.03 1009.07 1008.20 1007.59 1007.23 1005.79 1005.93 1005.54 1005.21 1005.17 1004.88 1004.94 1006.50 1006.82 1007.59 1007.93 1007.50 1004.24 1005.02 1004.59 1004.06 1005.12 1005.42 1005.58 1006.08 1007.09 1007.96 1009.04 1009.75 1010.31 1010.87 1011.49 1012.08 1012.72 1013.11 1013.42 1013.84 1014.37 1014.90
1015.70 1015.16 1014.08 1012.49 1011.32 1010.59 1009.50 1008.62 1008.17 1007.73 1007.08 1006.73 1006.72 1006.33 1006.22 1005.98 1005.85 1006.03 1006.22 1006.49 1006.99 1005.98 1003.64 1003.98 1004.17 1003.70 1003.54 1004.82 1005.30 1005.35 1006.12 1007.30 1008.00 1008.76 1009.36 1009.87 1010.54 1011.20 1011.74 1012.20 1012.75 1013.16 1013.59 1014.13
1017.20 1016.60 1015.43 1012.78 1011.74 1010.86 1010.05 1009.17 1008.79 1008.47 1007.76 1007.60 1007.77 1007.36 1007.00 1006.92 1006.90 1007.05 1006.87 1006.28 1006.34 1006.22 1006.52 1006.30 1007.00 1006.32 1006.17 1006.50 1006.13 1005.09 1005.24 1006.08 1006.91 1007.65 1008.26 1009.04 1009.57 1010.12 1010.85 1011.38 1011.79 1012.32 1012.81 1013.22
1017.74 1017.20 1015.53 1013.79 1012.29 1011.50 1011.10 1010.20 1010.06 1010.00 1009.57 1007.98 1008.81 1008.30 1007.95 1007.88 1008.43 1008.50 1008.26 1007.68 1007.02 1006.43 1006.36 1007.09 1007.13 1006.65 1006.56 1007.01 1006.38 1006.55 1005.99 1004.94 1005.72 1006.44 1007.24 1007.97 1008.50 1008.91 1009.56 1010.35 1010.94 1011.35 1011.81 1012.41
1018.59 1017.84 1016.14 1013.19 1012.53 1011.86 1011.81 1011.62 1011.30 1011.74 1011.75 1010.99 1010.32 1010.16 1009.73 1009.46 1009.30 1009.06 1008.74 1008.46 1006.66 1005.17 1005.04 1005.82 1007.34 1007.98 1008.00 1007.32 1006.80 1005.29 1005.65 1004.86 1004.88 1005.56 1006.09 1006.61 1007.18 1007.91 1008.60 1009.23 1009.80 1010.51 1010.93 1011.34
1018.30 1017.88 1016.82 1015.90 1014.85 1013.56 1014.26 1014.76 1013.95 1013.60 1013.60 1012.82 1012.64 1012.05 1011.42 1010.93 1009.51 1009.10 1008.02 1007.29 1006.60 1005.76 1005.13 1005.06 1005.77 1006.35 1006.75 1006.73 1004.94 1003.70 1003.60 1004.04 1004.12 1004.42 1004.78 1005.41 1006.23 1007.06 1007.62 1008.28 1008.96 1009.44 1009.97 1010.43
1019.35 1018.28 1017.51 1017.02 1015.93 1016.92 1017.12 1015.46 1016.01 1015.04 1014.47 1013.75 1012.92 1011.89 1011.69 1011.43 1010.67 1009.35 1008.40 1007.78 1006.96 1006.18 1005.67 1005.68 1005.16 1005.20 1005.88 1005.49 1004.15 1002.74 1001.77 1002.81 1003.46 1003.61 1003.95 1004.61 1005.20 1006.11 1006.78 1007.49 1008.08 1008.57 1009.14 1009.62
1021.12 1019.38 1018.21 1018.28 1018.65 1018.24 1018.06 1017.28 1016.30 1016.10 1015.12 1014.32 1013.59 1012.01 1011.46 1011.11 1010.76 1009.66 1007.66 1007.48 1006.53 1006.52 1006.76 1006.28 1005.65 1004.90 1003.89 1002.16 1002.24 1001.92 1001.98 1002.31 1002.79 1002.91 1003.08 1003.56 1004.32 1005.09 1005.95 1006.60 1007.09 1007.65 1008.14 1008.41
1021.37 1019.53 1019.18 1018.90 1018.79 1018.67 1018.32 1017.72 1016.79 1015.54 1014.92 1014.42 1014.02 1012.87 1011.47 1011.23 1010.35 1009.43 1008.16 1007.85 1007.81 1007.83 1006.79 1006.15 1006.08 1005.89 1004.92 1003.76 1002.42 1002.24 1001.76 1001.64 1001.81 1002.03 1002.20 1002.69 1003.41 1004.19 1004.86 1005.39 1005.96 1006.48 1006.89 1007.10
1021.01 1020.06 1019.38 1018.78 1018.83 1018.58 1018.01 1017.69 1016.64 1015.39 1013.95 1013.30 1013.18 1012.38 1011.29 1010.76 1010.07 1008.79 1008.31 1008.03 1008.07 1007.56 1007.24 1006.77 1006.68 1006.25 1005.30 1004.52 1003.48 1002.44 1001.74 1000.95 1000.72 1000.82 1001.29 1001.85 1002.55 1003.41 1003.83 1003.84 1004.28 1004.93 1005.42 1006.06
1020.76 1020.14 1020.05 1019.32 1018.82 1018.32 1017.70 1016.85 1016.04 1014.85 1013.13 1012.78 1012.06 1011.55 1010.98 1009.80 1009.24 1008.48 1008.14 1008.03 1007.96 1007.60 1007.02 1006.89 1006.71 1006.24 1005.90 1005.14 1003.84 1002.71 1001.54 1000.54 1000.17 1000.10 1000.60 1000.97 1001.84 1003.50 1004.10 1004.07 1003.96 1004.02 1004.47 1004.93
1019.93 1019.68 1019.62 1019.00 1018.66 1018.35 1017.68 1017.07 1016.16 1015.28 1014.17 1013.06 1011.94 1011.20 1009.90 1008.49 1008.51 1008.16 1008.40 1007.91 1007.73 1007.57 1007.36 1007.31 1006.83 1006.52 1006.30 1005.27 1004.12 1002.98 1001.64 1000.29 999.46 999.45 999.64 1000.10 1000.94 1002.16 1003.62 1004.76 1004.76 1004.63 1004.53 1004.51
1018.86 1019.03 1018.82 1018.49 1018.20 1018.05 1017.55 1016.87 1016.16 1015.40 1014.56 1013.59 1012.43 1011.63 1010.61 1008.76 1008.66 1008.20 1008.41 1008.18 1008.02 1008.06 1008.13 1007.84 1007.22 1006.56 1005.84 1005.09 1004.00 1002.57 1001.15 999.85 999.00 998.86 999.12 999.70 1000.27 1001.11 1002.22 1003.40 1004.18 1004.95 1005.40 1005.30
1017.83 1017.99 1017.96 1017.77 1017.56 1017.61 1017.25 1016.62 1015.88 1015.14 1014.64 1014.08 1012.84 1012.34 1010.54 1010.08 1009.56 1009.30 1009.03 1008.76 1008.24 1007.83 1007.82 1007.82 1007.27 1006.56 1005.80 1005.03 1003.82 1002.36 1000.98 999.88 999.24 998.84 998.89 999.12 999.70 1000.52 1001.50 1002.36 1003.21 1004.07 1005.32 1005.75
1016.58 1016.76 1016.83 1017.00 1016.84 1016.89 1016.81 1016.31 1015.83 1015.44 1015.01 1014.28 1013.36 1012.55 1011.85 1011.38 1010.99 1010.20 1009.69 1009.36 1009.04 1008.00 1008.70 1008.16 1007.51 1006.71 1005.95 1005.20 1003.71 1002.60 1000.94 1000.11 999.46 998.97 998.88 999.36 999.69 1000.19 1000.92 1001.74 1002.88 1003.79 1004.65 1005.24
1016.03 1016.16 1016.22 1016.24 1016.13 1016.16 1016.16 1016.13 1015.88 1015.56 1015.28 1014.89 1014.42 1013.79 1012.70 1011.79 1011.29 1010.73 1010.16 1009.84 1009.35 1008.45 1009.14 1008.34 1007.74 1007.11 1005.98 1004.93 1003.94 1002.55 1001.22 1000.36 999.65 999.33 999.17 998.96 999.95 1000.78 1000.90 1001.46 1002.70 1003.67 1004.87 1005.76
1015.70 1015.84 1015.70 1015.62 1015.61 1015.66 1015.56 1015.62 1015.54 1015.45 1015.13 1014.92 1014.46 1013.90 1013.22 1012.47 1012.04 1011.34 1011.00 1010.17 1009.19 1009.53 1008.10 1007.89 1007.98 1006.00 1006.06 1004.84 1003.21 1002.74 1001.45 1000.85 1000.33 1000.42 1000.58 1000.49 1000.98 1001.28 1001.83 1002.38 1003.12 1004.27 1005.50 1006.45
1016.00 1015.58 1015.24 1015.21 1015.07 1015.02 1015.14 1015.23 1015.16 1015.18 1015.10 1014.85 1014.56 1014.29 1013.84 1013.37 1012.77 1012.33 1011.64 1011.00 1009.90 1008.62 1009.17 1008.36 1007.49 1006.27 1004.65 1004.60 1003.48 1002.35 1001.86 1001.36 1001.16 1001.32 1001.70 1001.86 1002.66 1002.30 1002.73 1002.79 1002.83 1004.50 1005.22 1006.97
1015.28 1015.13 1015.02 1015.01 1014.98 1014.60 1014.58 1014.70 1014.86 1014.84 1014.88 1014.88 1014.87 1014.72 1014.36 1014.09 1013.53 1012.84 1011.98 1011.48 1010.70 1010.84 1009.95 1009.63 1008.13 1006.85 1005.42 1004.62 1003.18 1002.20 1002.77 1002.86 1002.76 1002.50 1002.98 1003.42 1003.92 1004.35 1004.90 1004.71 1004.68 1005.44 1007.64 1007.96
1014.61 1014.50 1014.42 1014.51 1014.30 1014.30 1014.22 1014.14 1014.34 1014.60 1014.68 1014.80 1014.97 1014.93 1014.90 1014.58 1013.87 1013.33 1012.61 1011.76 1011.52 1010.94 1010.22 1009.34 1008.62 1007.59 1006.86 1005.49 1005.20 1004.78 1003.96 1004.42 1004.34 1004.36 1004.14 1004.92 1005.30 1005.96 1006.46 1006.96 1007.41 1008.00 1008.75 1008.69
1014.76 1014.42 1013.74 1013.80 1013.80 1014.14 1014.14 1014.01 1014.11 1014.50 1014.94 1015.46 1015.56 1015.30 1014.82 1014.45 1014.08 1013.65 1013.60 1013.02 1012.09 1011.06 1010.57 1009.74 1009.39 1008.83 1008.21 1007.16 1007.08 1006.63 1005.84 1006.36 1006.57 1006.71 1006.58 1006.72 1007.14 1007.67 1007.86 1008.22 1008.78 1009.77 1010.15 1010.56
1014.36 1013.87 1013.73 1013.92 1013.99 1013.97 1014.03 1014.04 1014.05 1014.62 1015.21 1015.48 1015.84 1016.03 1015.79 1015.39 1014.87 1013.91 1013.44 1013.42 1012.78 1012.24 1011.60 1011.28 1010.10 1009.91 1009.29 1008.96 1008.55 1008.46 1008.06 1008.32 1008.70 1009.27 1009.41 1009.52 1010.04 1009.04 1008.68 1009.69 1010.51 1011.15 1011.61 1011.99
1013.80 1013.85 1013.66 1013.56 1013.80 1013.76 1013.65 1014.31 1014.25 1014.83 1015.24 1015.42 1015.71 1016.02 1015.90 1015.44 1015.17 1015.11 1014.45 1013.24 1012.97 1013.32 1012.19 1012.04 1011.37 1010.77 1011.27 1011.06 1010.56 1010.31 1010.08 1010.21 1010.50 1011.17 1011.30 1011.25 1011.27 1011.34 1011.51 1011.64 1011.90 1012.34 1012.68 1012.61
1013.95 1014.06 1013.93 1013.76 1013.66 1013.97 1013.90 1014.44 1014.65 1015.13 1015.62 1015.80 1015.91 1015.97 1015.94 1015.89 1015.62 1015.32 1014.95 1014.80 1014.44 1014.17 1013.49 1013.16 1012.89 1012.59 1012.42 1012.69 1012.08 1011.52 1011.86 1011.89 1011.87 1011.96 1012.10 1012.26 1012.40 1012.60 1012.54 1012.78 1013.21 1013.56 1013.68 1013.69
1014.24 1014.75 1015.62 1014.57 1013.58 1013.63 1013.87 1014.46 1014.92 1015.06 1015.59 1015.70 1015.62 1015.78 1015.72 1015.61 1015.41 1015.22 1015.13 1014.94 1014.39 1014.07 1013.80 1013.38 1013.00 1012.98 1012.90 1013.46 1013.41 1012.93 1012.83 1012.96 1013.07 1013.32 1013.46 1013.64 1013.68 1013.68 1013.93 1014.27 1014.42 1014.78 1014.97 1015.30
1015.04 1015.51 1016.00 1015.34 1014.83 1014.02 1014.18 1014.46 1014.97 1015.17 1015.13 1015.55 1015.80 1015.76 1015.79 1015.74 1015.56 1015.08 1014.91 1014.71 1014.40 1013.99 1013.61 1013.56 1013.74 1013.70 1013.70 1014.11 1013.84 1013.71 1013.58 1013.78 1013.97 1014.42 1014.65 1014.81 1014.99 1015.23 1015.55 1015.70 1015.78 1016.01 1016.52 1016.88
Wind_Speed
12 13 14 17 19 20 13 9 4 12 14 4 10 12 14 13 14 13 12 6 5 9 15 10 12 7 8 20 22 21 22 21 21 19 18 16 17 15 17 11 15 11 9 8
14 12 17 18 18 20 19 17 15 13 17 6 10 12 14 15 15 12 10 5 5 15 25 15 16 10 6 11 21 21 21 22 20 18 19 18 17 15 16 16 13 15 14 11
8 9 14 12 12 16 18 18 11 12 10 10 9 12 10 11 14 17 14 11 10 13 14 13 3 11 13 15 19 21 21 20 20 20 19 19 17 16 15 17 15 12 14 13
5 5 3 10 8 14 18 17 18 19 13 9 6 10 12 7 9 17 22 22 10 9 3 6 4 6 9 8 8 19 21 20 21 20 20 18 18 18 16 15 17 15 14 14
3 4 10 14 13 11 7 11 10 8 13 20 15 11 8 13 19 18 19 20 11 6 9 2 4 9 6 11 11 7 16 20 20 21 20 18 20 19 18 15 15 16 14 15
2 4 7 6 6 13 4 9 9 12 12 17 16 7 6 21 20 21 19 18 13 9 10 10 6 5 15 17 16 16 17 17 18 19 20 21 20 19 15 16 15 12 15 15
7 6 7 13 19 11 3 6 20 17 10 14 9 5 13 15 22 20 19 20 15 11 9 11 8 4 9 8 19 21 19 18 16 19 20 19 18 16 17 15 14 15 15 14
5 4 6 21 14 7 11 19 14 20 17 18 17 20 15 12 18 21 24 21 8 8 10 13 12 8 6 19 24 9 9 9 16 18 16 14 18 15 16 15 15 15 14 12
3 6 13 8 9 13 11 17 18 17 18 18 18 23 22 16 15 23 25 5 7 8 10 10 8 12 16 14 5 6 7 15 12 14 16 15 17 17 13 15 13 13 12 12
5 3 10 14 12 10 14 16 20 21 19 16 17 18 19 16 15 14 7 5 4 5 7 8 9 11 12 13 11 8 7 9 14 13 15 15 13 14 14 14 13 13 13 13
6 10 14 8 13 13 15 15 18 23 23 20 16 19 16 15 19 5 3 4 4 4 4 6 7 9 12 13 11 9 9 7 12 13 13 14 14 13 14 16 15 14 13 12
4 8 9 11 13 17 15 18 19 23 10 13 10 11 14 14 11 5 2 1 2 5 6 7 7 9 11 12 13 11 9 7 10 12 11 11 12 5 12 8 0 12 15 13
4 5 8 12 11 12 14 15 13 17 18 11 10 13 21 9 10 6 4 4 5 6 7 8 9 9 10 13 12 11 8 10 9 12 11 12 11 11 8 4 9 9 3 13
8 4 7 8 6 9 13 12 12 10 12 14 12 12 14 9 7 9 9 7 5 5 5 8 9 10 13 15 13 11 10 10 6 10 9 10 11 10 8 9 8 4 9 7
6 7 10 9 6 5 7 9 11 11 11 13 14 14 15 14 11 10 10 9 8 7 11 10 11 12 15 16 14 13 9 6 5 2 4 9 10 9 9 9 9 8 5 3
6 8 4 7 5 4 5 9 11 11 10 12 13 17 15 11 11 10 11 11 10 10 9 11 11 14 15 16 15 11 8 10 5 4 4 4 8 9 10 10 9 8 7 6
4 3 4 6 3 3 3 2 4 7 8 9 10 10 12 12 11 12 11 10 9 10 8 10 14 14 15 13 13 9 7 4 5 5 4 3 5 4 4 8 8 7 4 2
2 1 4 5 3 3 2 2 1 6 8 10 10 11 11 12 11 12 11 11 11 8 11 13 14 15 14 11 13 10 5 4 7 8 7 9 8 7 8 11 9 7 6 1
1 5 5 5 1 4 2 1 2 3 2 5 8 11 10 10 10 10 10 9 11 14 14 14 22 18 15 13 13 9 3 7 7 9 8 10 7 6 6 8 14 6 9 7
9 7 4 6 4 5 5 4 4 1 2 1 5 8 9 10 10 11 10 10 12 7 11 12 14 12 16 14 16 6 9 9 8 10 9 10 9 9 9 10 10 13 7 8
4 4 6 5 8 6 5 0 1 2 2 4 5 6 7 8 9 10 11 9 14 12 12 18 13 11 7 13 13 11 12 13 11 10 10 10 11 10 11 10 10 9 8 10
4 4 6 6 4 6 5 4 2 3 6 6 6 7 8 11 11 9 9 9 8 18 11 11 11 19 13 19 11 12 13 14 12 11 11 11 12 7 12 9 12 10 9 9
10 4 1 7 6 2 4 2 1 7 7 5 7 5 6 6 7 9 11 12 9 16 9 9 19 23 24 13 12 12 14 14 13 11 10 10 9 10 13 11 11 10 9 9
4 1 2 3 5 6 1 3 4 7 7 8 8 5 2 4 5 5 6 12 14 13 14 16 20 26 20 11 11 12 12 12 11 10 11 14 11 10 10 10 11 10 10 11
4 5 4 5 1 8 6 8 7 8 5 6 7 4 3 3 2 3 4 5 9 8 7 16 21 21 11 11 11 12 12 11 11 11 11 11 11 11 12 12 11 10 10 10
6 5 4 13 3 4 5 8 5 2 7 2 2 4 3 2 3 3 2 3 5 4 4 6 8 9 10 9 10 11 11 12 12 12 12 11 11 11 11 10 10 9 9 9
5 7 5 5 7 3 6 6 6 3 4 5 3 4 3 3 2 4 1 1 4 5 5 5 4 4 5 6 7 9 9 8 11 10 10 10 9 9 9 9 9 9 9 8
Wind_Direction
293 303 305 299 302 304 308 294 293 288 286 61 39 17 9 25 43 69 80 144 256 279 270 257 213 173 250 201 196 185 192 196 201 199 202 199 203 199 207 201 204 199 185 182
285 296 291 288 292 294 296 289 290 297 281 26 5 359 9 352 3 29 26 101 233 263 259 202 206 219 208 259 204 193 191 198 198 197 199 200 198 197 199 205 201 201 207 199
283 325 319 295 258 270 276 285 290 289 295 330 354 348 352 353 5 354 345 329 338 338 219 196 240 325 216 221 213 195 197 196 198 198 199 199 197 198 196 202 205 196 200 201
277 354 254 258 300 291 289 293 297 315 304 337 11 330 329 355 357 358 354 334 33 13 58 216 219 37 11 343 316 206 194 194 195 195 198 195 194 198 200 199 203 207 207 206
186 208 285 297 280 292 346 305 319 314 353 328 18 344 339 18 2 345 338 329 317 1 340 122 191 96 17 312 309 301 237 194 193 193 194 192 198 196 197 196 201 206 206 206
241 222 228 283 264 286 14 273 338 27 7 330 353 335 321 345 341 330 325 313 298 347 332 333 133 185 148 186 245 257 254 211 192 193 192 196 196 198 194 201 205 202 210 210
233 243 272 11 340 327 218 313 332 344 351 320 317 287 321 329 320 318 310 317 307 341 327 320 341 217 181 220 249 259 228 218 192 193 194 194 191 193 197 196 200 207 209 213
337 256 247 9 353 5 333 316 325 317 317 310 307 308 315 322 313 306 302 303 319 332 326 319 325 326 205 205 215 228 198 203 204 193 192 187 186 189 195 196 200 206 209 212
271 283 321 356 320 319 321 311 313 305 297 296 304 303 309 315 308 301 286 254 334 331 312 299 350 332 319 325 309 224 197 201 201 192 192 185 186 188 190 194 200 203 206 211
311 256 310 321 313 334 316 311 307 298 294 291 285 283 291 302 297 282 317 345 326 276 310 340 348 325 310 323 337 333 237 200 202 193 186 193 185 189 190 195 199 203 209 214
254 286 309 280 320 314 313 308 296 304 269 279 276 278 273 280 282 228 290 318 327 327 334 348 334 320 325 328 330 322 292 221 201 201 187 190 190 189 197 202 199 201 209 210
264 305 303 298 312 321 319 317 317 323 285 274 288 297 294 268 238 198 172 95 343 350 0 347 340 333 328 324 327 315 307 249 209 201 190 189 184 136 40 26 353 211 196 206
248 269 284 276 298 309 314 324 319 331 342 317 347 346 326 211 219 132 140 102 51 14 2 346 344 332 327 325 321 305 290 279 209 205 190 187 191 185 179 55 67 59 71 208
226 272 275 265 300 328 331 334 333 331 340 338 358 357 321 6 47 51 39 24 53 42 6 347 340 333 334 327 316 308 305 289 236 197 193 189 191 194 181 175 160 143 44 87
239 215 240 267 266 299 340 342 343 356 359 349 352 341 356 360 12 26 23 11 2 32 16 357 344 337 331 324 318 315 311 320 277 276 219 194 189 176 168 170 172 151 120 73
222 218 224 228 259 266 349 0 4 360 2 348 352 347 351 355 0 10 20 16 8 16 353 350 338 335 325 317 322 310 320 323 290 231 208 200 203 185 171 169 156 150 156 158
244 323 338 327 339 296 172 351 8 9 7 357 344 336 347 355 5 4 4 0 357 21 342 347 331 315 316 310 316 322 297 326 8 38 30 151 130 81 209 147 141 120 92 51
144 82 314 310 325 316 3 197 326 4 20 8 358 355 0 358 356 357 344 345 9 337 6 347 311 327 304 310 336 317 305 3 66 63 53 59 71 101 109 94 70 82 85 126
11 256 226 290 311 339 35 357 51 99 78 35 10 10 350 349 354 342 338 351 11 14 359 336 339 329 341 319 324 324 341 70 56 70 61 70 58 72 91 106 116 78 71 73
205 231 217 265 167 243 265 154 173 324 197 146 345 10 7 357 346 351 346 12 20 359 355 336 347 336 345 345 339 355 78 69 69 72 61 70 70 63 60 62 82 97 105 98
61 334 290 286 190 200 244 148 152 148 41 52 28 19 6 357 348 11 16 17 360 3 12 9 1 358 2 20 29 31 47 47 50 57 65 65 69 70 69 69 68 71 85 75
234 219 242 268 357 181 191 206 178 121 93 87 65 21 1 9 6 26 32 12 5 19 10 19 15 22 34 40 37 42 48 55 50 46 43 47 55 67 74 72 61 58 58 65
260 184 355 113 255 41 164 209 150 84 113 114 99 62 36 38 14 17 25 13 18 30 33 33 41 38 42 40 41 47 55 54 53 51 54 61 66 51 68 68 70 67 71 56
228 107 352 6 107 355 30 164 109 88 115 94 85 69 51 47 42 28 13 29 35 33 45 39 41 47 45 44 48 47 54 60 64 64 60 55 55 59 68 69 74 71 58 63
21 52 24 299 42 223 114 119 90 89 121 112 118 112 82 357 42 338 3 0 9 26 44 60 58 50 49 46 52 63 58 56 56 61 62 64 66 62 61 64 60 64 63 64
78 90 355 286 67 41 106 130 112 172 135 171 129 146 159 199 260 289 344 350 330 9 31 37 47 57 65 54 49 63 68 66 61 59 61 58 57 59 59 61 62 61 64 61
80 46 351 13 313 20 90 87 121 112 56 118 121 21 122 106 350 325 214 140 351 15 26 39 52 59 76 73 73 64 59 65 75 77 70 69 69 71 71 69 67 66 67 74